AO-07 1 07530U 74089B 26061.62419284 -.00000031 00000-0 98556-4 0 9996 2 07530 101.9970 73.7380 0012032 335.8556 136.5471 12.53696261347164 UO-11 1 14781U 84021B 26061.49035373 .00001904 00000-0 20074-3 0 9995 2 14781 97.7935 28.3556 0007769 165.2839 194.8606 14.90474551241231 AO-27 1 22825U 93061C 26061.78442457 .00000138 00000-0 69588-4 0 9996 2 22825 98.6997 129.1889 0009258 57.6274 302.5803 14.30910299691782 FO-29 1 24278U 96046B 26061.62317689 -.00000014 00000-0 22091-4 0 9999 2 24278 98.5393 284.9983 0350132 13.0944 347.9005 13.53268404458753 GO-32 1 25397U 98043D 26061.50493037 .00000111 00000-0 68119-4 0 9998 2 25397 99.0018 51.6019 0001855 130.8341 229.2998 14.24403781436149 ISS 1 25544U 98067A 26061.54331036 .00009842 00000-0 19033-3 0 9992 2 25544 51.6317 107.6867 0008241 149.4104 210.7366 15.48401384555220 NO-44 1 26931U 01043C 26061.64344242 .00000210 00000-0 10924-3 0 9995 2 26931 67.0510 159.8353 0007022 265.3529 94.6771 14.31907768275193 SO-50 1 27607U 02058C 26061.53568897 .00002000 00000-0 25340-3 0 9992 2 27607 64.5510 98.8982 0075068 281.9553 77.3144 14.82748605248643 CO-55 1 27844U 03031E 26061.53865418 .00000422 00000-0 20177-3 0 9995 2 27844 98.6778 71.4263 0010451 131.1798 229.0284 14.24259043176494 CO-57 1 27848U 03031J 26061.47397015 .00000370 00000-0 18145-3 0 9999 2 27848 98.6809 71.1608 0010073 147.8970 212.2824 14.23555341176199 RS-22 1 27939U 03042A 26061.87442041 .00001543 00000-0 24718-3 0 9992 2 27939 98.3425 243.2462 0010243 243.9753 247.9478 14.73229582199899 CO-58 1 28895U 05043F 26061.64784810 .00002536 00000-0 40907-3 0 9996 2 28895 98.2814 215.1395 0014355 179.3571 180.7656 14.72280863 86078 CO-65 1 32785U 08021C 26061.88045833 .00009086 00000-0 58977-3 0 9992 2 32785 97.8192 41.2304 0010318 39.4800 320.7177 15.08251734969168 CO-66 1 32791U 08021J 26061.52544139 .00022953 00000-0 82362-3 0 9996 2 32791 97.7503 54.6595 0002730 20.6846 339.4503 15.28701509970974 RS-30 1 32953U 08025A 26061.78670068 .00000049 00000-0 28259-3 0 9996 2 32953 82.4985 61.6189 0019265 180.2952 179.8120 12.43175874806476 SRMSAT 1 37841U 11058D 26061.50080932 .00000475 00000-0 11391-3 0 9994 2 37841 19.9732 345.2138 0011888 110.4701 67.1482 14.11544423742721 ZACUBE-1 1 39417U 13066B 26061.86043747 .00006102 00000-0 48380-3 0 9999 2 39417 97.8182 23.6506 0041555 243.0931 116.6044 15.00236927664783 Delfi-N3xt 1 39428U 13066N 26061.78004796 .00008685 00000-0 78413-3 0 9991 2 39428 97.8352 342.3120 0075851 199.3971 160.4358 14.93537092658731 GOMX-1 1 39430U 13066Q 26061.80947065 .00002226 00000-0 34024-3 0 9997 2 39430 97.6574 268.9434 0130659 59.4061 301.9958 14.69065451654296 LO-74 1 39440U 13066AA 26061.86115483 .00007706 00000-0 72433-3 0 9999 2 39440 97.8806 10.5236 0059455 21.5397 338.8304 14.92848010661124 AO-73 1 39444U 13066AE 26061.80574300 .00010543 00000-0 68338-3 0 9996 2 39444 97.8166 31.2276 0036526 203.0732 156.8857 15.07748353663629 DTUSAT-2 1 40030U 14033W 26060.92383403 .00010635 00000-0 59988-3 0 9991 2 40030 98.0830 51.9899 0006434 234.0713 125.9920 15.13353987636452 EO-80 1 40032U 14033Y 26061.52351676 .00011281 00000-0 63327-3 0 9997 2 40032 98.0716 51.9121 0007742 164.7893 195.3571 15.13500197636524 LILACSAT-2 1 40908U 15049K 26061.85620057 .00020066 00000-0 38883-3 0 9995 2 40908 97.4817 94.8443 0005596 279.9056 80.1562 15.47723029579287 Horyu-4 1 41340U 16012D 26061.43858117 .00092182 00000-0 10269-2 0 9996 2 41340 30.9915 118.6736 0001821 75.0836 285.0018 15.61428170553972 Lapan A3 1 41603U 16040E 26061.84180550 .00004964 00000-0 16123-3 0 9990 2 41603 97.1471 61.5516 0011807 45.0970 315.1229 15.32304729538523 CAS-2T 1 41847U 16066G 26061.78002362 .00001730 00000-0 24953-3 0 9993 2 41847 98.3900 138.7061 0343826 92.3774 271.6820 14.44443506489438 TechnoSat 1 42829U 17042E 26061.44357090 .00005227 00000-0 37885-3 0 9996 2 42829 97.4139 223.2955 0019546 98.4449 261.8994 15.04208168470657 AO-91 1 43017U 17073E 26061.77332225 .00012615 00000-0 57237-3 0 9991 2 43017 97.4875 291.2158 0155581 336.0986 23.3072 15.10689956449313 S-Net D 1 43186U 18014G 26061.67598885 .00007742 00000-0 41163-3 0 9995 2 43186 97.5450 327.1718 0009548 36.8925 323.2962 15.15513803442629 S-Net B 1 43187U 18014H 26061.68541864 .00007900 00000-0 42027-3 0 9998 2 43187 97.5456 327.1643 0010052 32.1416 328.0427 15.15485743442629 S-Net A 1 43188U 18014J 26061.74139248 .00007829 00000-0 41611-3 0 9993 2 43188 97.5465 327.4095 0009971 33.0573 327.1281 15.15521951442637 S-Net C 1 43189U 18014K 26061.68873056 .00007703 00000-0 40984-3 0 9992 2 43189 97.5480 327.4152 0011184 24.9418 335.2353 15.15477676441177 Ten-Koh 1 43677U 18084G 26061.51574265 .00003792 00000-0 29087-3 0 9998 2 43677 98.0788 249.4020 0011378 113.8274 246.4143 15.02406910400147 PO-101 1 43678U 18084H 26061.85105957 .00003407 00000-0 27946-3 0 9999 2 43678 98.1035 253.6074 0011057 148.1299 212.0594 14.99918191400279 QO-100 1 43700U 18090A 26061.72035672 .00000127 00000-0 00000 0 0 9998 2 43700 0.0255 242.7362 0002653 132.4476 70.4158 1.00267779 26605 MinXSS-2 1 43758U 18099A 26061.76413281 .00034841 00000-0 87841-3 0 9992 2 43758 97.4649 135.4558 0007383 287.1735 72.8702 15.39768259397711 AO-95 1 43770U 18099N 26061.68475105 .00013793 00000-0 56810-3 0 9995 2 43770 97.4530 122.4464 0008954 12.8802 347.2662 15.24186888396987 SNUSat 2 1 43782U 18099AA 26061.68907212 .00010680 00000-0 49810-3 0 9991 2 43782 97.4215 116.7681 0009335 313.5206 46.5252 15.20004625396843 SnugLite 1 43784U 18099AC 26061.12573873 .00013775 00000-0 56121-3 0 9995 2 43784 97.4030 116.5756 0001680 331.4390 28.6755 15.24586542396991 ITASat 1 1 43786U 18099AE 26061.71949348 .00008385 00000-0 42018-3 0 9997 2 43786 97.4183 115.3895 0012940 11.4547 348.6979 15.17536936396754 EAGLET 1 1 43790U 18099AJ 26061.67205007 .00005542 00000-0 32583-3 0 9992 2 43790 97.4388 114.1498 0011115 2.5480 357.5805 15.12023518396234 ESEO 1 43792U 18099AL 26061.66902291 .00002859 00000-0 21164-3 0 9993 2 43792 97.4107 103.5646 0011724 342.1708 17.9105 15.03870275395794 JO-97 1 43803U 18099AX 26061.68901688 .00019773 00000-0 68267-3 0 9995 2 43803 97.4273 124.3666 0004609 290.0792 69.9952 15.29981850397320 Suomi 100 1 43804U 18099AY 26061.73144229 .00015423 00000-0 60558-3 0 9995 2 43804 97.4336 122.6493 0009023 298.5190 61.5139 15.25765466397177 ISAT 1 43879U 18111D 26061.75420740 .00061850 00000-0 10943-2 0 9996 2 43879 97.5910 350.1309 0004537 6.2662 353.8645 15.50095696394608 UWE-4 1 43880U 18111E 26061.72119306 .00036009 00000-0 91783-3 0 9998 2 43880 97.5860 345.7590 0008919 5.6381 354.4963 15.39415358394366 Sparrow 1 43881U 18111F 26061.78717417 .00075103 00000-0 11691-2 0 9999 2 43881 97.6123 354.4897 0005721 47.7770 312.3967 15.53626643394751 Prox-1 1 44339U 19036A 26061.52464497 .00019160 00000-0 20156-2 0 9991 2 44339 23.9956 105.2744 0006194 234.6642 125.3278 14.87791906357554 Taurus 1 1 44530U 19059C 26061.89086464 .00010210 00000-0 16829-2 0 9992 2 44530 98.6290 220.2895 0008284 279.8760 80.1509 14.70667625343019 TO-108 1 44881U 19093C 26061.81893400 .00001199 00000-0 14200-3 0 9995 2 44881 97.7630 136.6197 0015016 78.2601 282.0299 14.86321320335619 FloripaSat 1 1 44885U 19093G 26061.85811874 .00008723 00000-0 65850-3 0 9995 2 44885 97.7928 155.4316 0012863 73.2086 287.0548 15.02590300336678 RS-44 1 44909U 19096E 26061.44574770 .00000016 00000-0 18230-4 0 9999 2 44909 82.5186 50.6292 0218214 34.2189 327.2756 12.79747366288694 SALSAT 1 46495U 20068K 26061.53547552 .00011172 00000-0 41124-3 0 9992 2 46495 97.8844 58.2509 0008864 326.6723 33.3956 15.28007427299065 CSS (TIANHE-1) 1 48274U 21035A 26061.80363536 .00017409 00000-0 21017-3 0 9990 2 48274 41.4651 250.0496 0006617 230.1207 129.9050 15.60315912276531 CUTE 1 49263U 21088D 26061.77985985 .00043661 00000-0 42844-3 0 9991 2 49263 97.4242 153.6003 0003150 342.8788 17.2365 15.65947999245796 TeikyoSat 4 1 49396U 21102B 26061.64683443 .00002932 00000-0 18870-3 0 9993 2 49396 97.3802 95.2312 0010775 304.0305 55.9901 15.09075833236651 Z-Sat 1 49399U 21102E 26061.86033404 .00004173 00000-0 21189-3 0 9992 2 49399 97.3472 100.4001 0015262 257.3785 102.5742 15.17335721237319 KOSEN 1 1 49402U 21102H 26061.65521758 .00009822 00000-0 39341-3 0 9993 2 49402 97.3345 105.9199 0013171 218.4325 141.5976 15.25165286237774 HO-113 1 50466U 21131B 26061.83925963 .00000671 00000-0 22125-3 0 9998 2 50466 98.4969 154.8342 0005130 66.3744 293.7983 14.41240078219794 SNUGLITE 2 1 52899U 22065F 26061.35916287 .00001537 00000-0 30172-3 0 9996 2 52899 98.2016 206.4936 0007407 8.5524 351.5803 14.64105297195361 UmKA 1 (RS40S) 1 57172U 23091G 26061.78942608 .00008444 00000-0 40013-3 0 9997 2 57172 97.5196 120.9239 0014455 127.6813 232.5735 15.19470486147840 CubeBel-2 (EU11S) 1 57175U 23091K 26061.82397124 .00014630 00000-0 56223-3 0 9996 2 57175 97.5191 124.2320 0011746 127.6531 232.5774 15.26468119148069 RS-38S 1 57189U 23091Z 26061.84247006 .00020287 00000-0 64840-3 0 9995 2 57189 97.5216 129.4201 0009056 93.3547 266.8731 15.32441400148383 SONATE-2 1 59112U 24043Q 26061.36903506 .00042719 00000-0 74240-3 0 9991 2 59112 97.5384 205.9504 0007846 231.8475 128.2070 15.50669853111298 MO-122 1 60209U 24125G 26061.54902947 .00046157 00000-0 74116-3 0 9991 2 60209 97.2465 277.3216 0011180 251.3742 108.6298 15.52835342 92963 GRBBeta 1 60237U 24128C 26061.80075528 .00007355 00000-0 50539-3 0 9990 2 60237 61.9887 229.2747 0052097 112.8696 247.7909 15.05685105 90247 Curium One 1 60242U 24128H 26061.80344115 .00013895 00000-0 82099-3 0 9999 2 60242 61.9778 222.0666 0051978 109.4803 251.1917 15.10640677 90375 ROBUSTA-3A 1 60243U 24128J 26061.77754585 .00011176 00000-0 67691-3 0 9993 2 60243 61.9851 224.0652 0052462 107.1254 253.5595 15.09886768 90345 CatSat 1 60246U 24125J 26061.57869235 .00049013 00000-0 92454-3 0 9996 2 60246 97.2219 273.4796 0027641 214.7451 145.1996 15.47901110 90847 HYPERVIEW-1G (RS66S) 1 61772U 24199AP 26061.81755778 .00072586 00000-0 10030-2 0 9995 2 61772 97.3105 297.7157 0007205 317.0332 43.0360 15.56885987118032 AO-123 1 61781U 24199AY 26061.76663620 .00011374 00000-0 34822-3 0 9997 2 61781 97.3170 291.4172 0013476 337.1140 22.9500 15.33892773117609 JINJUSat 1B 1 63210U 25052A 26061.66581056 .00020517 00000-0 71056-3 0 9995 2 63210 97.4139 318.4799 0005481 96.8385 263.3479 15.29867501 53797 NUSHSAT 1 1 63211U 25052B 26061.65682549 .00024819 00000-0 81612-3 0 9992 2 63211 97.4119 318.7344 0005372 98.7566 261.4284 15.31510458 53811 TEVEL2-4 1 63213U 25052D 26061.69961235 .00022254 00000-0 75407-3 0 9996 2 63213 97.4040 318.1473 0004459 108.3721 251.8005 15.30565789 53808 TEVEL2-5 1 63214U 25052E 26061.64464484 .00022308 00000-0 75865-3 0 9994 2 63214 97.4038 318.0667 0004444 108.2519 251.9206 15.30447348 53790 TEVEL2-6 1 63215U 25052F 26061.65428043 .00022713 00000-0 77334-3 0 9990 2 63215 97.4041 318.0620 0004521 109.9512 250.2216 15.30405404 53791 TEVEL2-1 1 63217U 25052H 26061.65061916 .00021697 00000-0 74835-3 0 9997 2 63217 97.4016 317.7976 0004281 118.7771 241.3900 15.29995139 53780 TEVEL2-3 1 63218U 25052J 26061.64835751 .00022118 00000-0 76198-3 0 9996 2 63218 97.4019 317.8059 0004297 119.8285 240.3383 15.30030470 53780 TEVEL2-2 1 63219U 25052K 26061.45508269 .00022969 00000-0 79209-3 0 9997 2 63219 97.4017 317.6037 0004236 120.2136 239.9524 15.29988876 53755 TEVEL2-9 1 63237U 25052AD 26061.69733037 .00019983 00000-0 72566-3 0 9997 2 63237 97.4078 317.4266 0007313 144.2958 215.8772 15.28311423 53745 TEVEL2-7 1 63238U 25052AE 26061.26227880 .00020443 00000-0 74741-3 0 9995 2 63238 97.4081 316.9483 0007453 146.3242 213.8472 15.28082137 53673 TEVEL2-8 1 63239U 25052AF 26061.66209870 .00020138 00000-0 73648-3 0 9995 2 63239 97.4078 317.3269 0007368 145.3570 214.8151 15.28075546 53733 HYDRA-W 1 63490U 25052BL 26061.65559517 .00184252 00000-0 22336-2 0 9994 2 63490 97.3959 322.5096 0008638 118.8841 241.3283 15.59980742 54090 HADES-ICM (SO-125) 1 63492U 25052BN 26061.68675609 .00134694 00000-0 20045-2 0 9990 2 63492 97.3975 321.8901 0008264 124.6306 235.5728 15.54629520 54057 RSP-03 1 65732U 98067XL 26047.27951905 .10199253 12460-4 79249-3 0 9991 2 65732 51.6061 154.7117 0006246 319.9198 40.1367 16.39378610 23558 BOTAN 1 65942U 98067XP 26061.44192936 .02808540 11845-4 15065-2 0 9998 2 65942 51.6071 87.3174 0005072 45.1501 314.9928 16.19120033 22453 CEVROSAT1 1 66309U 25248S 26061.78988181 .00005381 00000-0 26437-3 0 9992 2 66309 45.4054 331.7158 0002951 186.3819 173.7030 15.19164930 18323 SPIRONE 1 66657U 25274H 26061.78118145 .00003107 00000-0 30375-3 0 9992 2 66657 97.7440 352.6646 0012769 15.6438 344.5173 14.93016372 14342 K-HERO 1 66660U 25274L 26061.74976195 .00003872 00000-0 37271-3 0 9990 2 66660 97.7447 352.7136 0014704 19.6541 340.5242 14.93475967 14340 SNUGLITE-III DURI 1 66661U 25274M 26061.74202475 .00003333 00000-0 32079-3 0 9997 2 66661 97.7441 352.7202 0015295 20.1380 340.0440 14.93566848 14347 SilverSat 1 66909U 98067XV 26061.52021951 .00171520 00000-0 14132-2 0 9999 2 66909 51.6251 101.5236 0005331 34.6258 325.5085 15.69284404 14062 SAKHACUBE-CHOLBON 1 67290U 25313AU 26061.78326471 .00012329 00000-0 53089-3 0 9996 2 67290 97.4024 138.2759 0009722 18.9539 341.2058 15.22699375 9777 QMR-KWT 1 67291U 25313AV 26061.77376044 .00017284 00000-0 73159-3 0 9992 2 67291 97.4023 138.2881 0009312 17.6721 342.4838 15.23209802 9779 IO-86 1 40931U 25360.30710720 .00000000 00000-0 12800-3 0 00 2 40931 6.0006 332.5373 0012733 338.8432 8.1437 14.79075515 01